Tracking 20040 objects as of 18-Nov-2019
Live streaming from Space Station
objects crossing your sky now

DELTA 1 DEB

Track DELTA 1 DEB now!
10-day predictions


NORAD ID: 7838
Int'l Code: 1972-058J
Perigee: 672.9 km
Apogee: 1,144.9 km
Inclination: 98.1 °
Period: 103.0 minutes
Semi major axis: 7279 km
RCS: 0.2743 m2 (medium)
Launch date: July 23, 1972
Source: United States (US)
Launch site: AIR FORCE WESTERN TEST RANGE (AFWTR)

Note: This is SATELLITE DEBRIS
aabbcc
Your satellite tracking list
Your tracking list is empty




NASA's NSSDC Master Catalog

Two Line Element Set (TLE):
1  7838U 72058J   19321.91491339 +.00000216 +00000-0 +11363-3 0  9999
2  7838 098.0771 294.9843 0324222 107.7140 255.9692 13.97703159233959
Source of the keplerian elements: AFSPC